DW1253 Weather Reports


time (UTC)temp
C
wind
direction
speed
KPH
gust
KPH
rain 1hr
cm
rain 24hr
cm
rain mn
cm
humidity
%
barometer
mb
20260506150855 7 32 3.2 6.4 0.00 3.35 1.55 96 1007.2
20260506150412 7 9 3.2 6.4 0.00 3.35 1.55 96 1007.3
20260506145855 7 40 4.8 6.4 0.00 3.35 1.55 96 1007.3
20260506145412 7 11 3.2 6.4 0.00 3.35 1.55 96 1007.2
20260506144842 7 25 3.2 6.4 0.03 3.35 1.55 96 1007.0
20260506144354 7 355 1.6 6.4 0.03 3.35 1.55 96 1006.9
20260506143849 7 80 3.2 6.4 0.03 3.35 1.55 96 1006.8
20260506143344 7 80 3.2 6.4 0.03 3.35 1.55 96 1006.8
20260506142838 7 76 4.8 6.4 0.03 3.35 1.55 96 1006.7
20260506142336 7 90 1.6 4.8 0.03 3.35 1.55 96 1006.6
20260506141852 6 91 1.6 3.2 0.03 3.35 1.55 96 1006.9
20260506141348 6 91 1.6 4.8 0.03 3.35 1.55 96 1006.8
20260506140844 6 91 1.6 6.4 0.03 3.35 1.55 96 1006.8
20260506140401 6 91 1.6 9.7 0.03 3.35 1.55 96 1006.7
20260506135836 6 104 3.2 11.3 0.03 3.35 1.55 96 1006.7
20260506135336 6 84 4.8 11.3 0.03 3.35 1.55 96 1006.5
20260506134837 7 86 4.8 9.7 0.00 3.33 1.52 96 1006.4
20260506134354 7 138 3.2 6.4 0.03 3.33 1.52 96 1006.5
20260506133852 6 63 3.2 8.0 0.03 3.33 1.52 96 1006.5
20260506133348 6 89 3.2 11.3 0.03 3.33 1.52 96 1006.5
20260506132848 6 89 6.4 11.3 0.03 3.33 1.52 96 1006.6
20260506132346 6 74 1.6 4.8 0.05 3.33 1.52 96 1006.5
20260506131841 6 74 1.6 4.8 0.05 3.33 1.52 96 1006.5
20260506131342 6 74 3.2 4.8 0.05 3.33 1.52 96 1006.5
20260506130857 6 74 0.0 6.4 0.05 3.33 1.52 96 1006.5
20260506130333 6 67 3.2 6.4 0.05 3.33 1.52 96 1006.4
20260506125906 6 35 3.2 6.4 0.05 3.33 1.52 96 1006.3
20260506125347 6 85 1.6 9.7 0.05 3.33 1.52 96 1006.3
20260506124851 6 86 4.8 9.7 0.08 3.33 1.52 96 1006.1
20260506124343 6 47 1.6 4.8 0.05 3.30 1.50 96 1006.2
20260506123836 6 76 3.2 4.8 0.05 3.30 1.50 96 1006.0
20260506123334 6 51 1.6 6.4 0.05 3.30 1.50 96 1006.3
20260506122847 6 51 3.2 6.4 0.08 3.30 1.50 96 1006.3
20260506122409 6 82 3.2 8.0 0.05 3.28 1.47 96 1006.3
20260506121844 6 18 4.8 8.0 0.08 3.28 1.47 96 1006.1
20260506121339 6 31 3.2 6.4 0.10 3.28 1.47 96 1006.1
20260506120835 6 58 3.2 8.0 0.10 3.28 1.47 96 1006.0
20260506120335 6 9 1.6 8.0 0.13 3.28 1.47 96 1006.0
20260506115851 6 54 3.2 9.7 0.13 3.28 1.47 96 1005.9
20260506115415 6 69 3.2 9.7 0.13 3.28 1.47 96 1005.8
20260506114851 6 98 3.2 9.7 0.10 3.25 1.45 96 1006.0
20260506114343 6 86 6.4 16.1 0.13 3.25 1.45 96 1005.9
20260506113838 6 101 4.8 24.1 0.13 3.25 1.45 96 1005.8
20260506113350 6 59 8.0 24.1 0.13 3.25 1.45 96 1006.0
20260506112851 6 76 11.3 22.5 0.10 3.23 1.42 96 1006.1
20260506112343 6 355 6.4 20.9 0.10 3.23 1.42 96 1006.2
20260506111858 6 348 9.7 20.9 0.10 3.20 1.40 96 1006.2
20260506111411 6 28 11.3 17.7 0.08 3.17 1.37 96 1006.3
20260506110852 6 54 3.2 19.3 0.10 3.17 1.37 96 1006.2
20260506110341 6 5 6.4 20.9 0.08 3.15 1.35 96 1006.1
20260506105834 6 302 4.8 24.1 0.10 3.15 1.35 96 1005.7
20260506105413 6 16 4.8 24.1 0.10 3.15 1.35 96 1005.5
20260506104843 6 85 4.8 16.1 0.10 3.12 1.32 96 1005.5
20260506104338 6 76 6.4 17.7 0.13 3.12 1.32 96 1005.4
20260506103859 6 72 6.4 17.7 0.13 3.12 1.32 96 1005.3
20260506103352 7 43 6.4 17.7 0.15 3.12 1.32 96 1005.4
20260506102852 7 63 6.4 12.9 0.15 3.12 1.32 96 1005.5
20260506102344 7 49 4.8 17.7 0.18 3.12 1.32 96 1005.4
20260506101904 7 77 8.0 19.3 0.15 3.10 1.30 96 1005.3
20260506101336 7 101 8.0 16.1 0.18 3.10 1.30 96 1005.2
20260506100900 7 71 4.8 16.1 0.15 3.07 1.27 96 1005.6
20260506100354 7 59 6.4 12.9 0.18 3.07 1.27 96 1005.6
20260506095850 7 51 8.0 16.1 0.18 3.05 1.24 96 1005.8
20260506095346 7 95 8.0 16.1 0.15 3.02 1.22 96 1005.8
20260506094837 7 51 8.0 14.5 0.18 3.02 1.22 96 1006.0
20260506094338 7 76 6.4 16.1 0.18 3.00 1.19 96 1006.0
20260506093839 7 61 8.0 17.7 0.18 3.00 1.19 96 1005.9
20260506093339 6 33 6.4 19.3 0.15 2.97 1.17 96 1005.9
20260506092856 7 38 9.7 19.3 0.18 2.97 1.17 96 1005.9
20260506092417 7 64 8.0 17.7 0.18 2.95 1.14 96 1005.9
20260506091408 7 70 8.0 16.1 0.18 2.92 1.12 96 1005.7
20260506090850 7 82 8.0 19.3 0.20 2.92 1.12 96 1005.8
20260506090349 7 355 9.7 17.7 0.18 2.90 1.09 96 1005.8
20260506085841 7 117 4.8 16.1 0.15 2.87 1.07 96 1005.8
20260506085339 7 93 6.4 17.7 0.15 2.84 1.04 96 1005.7
20260506084839 7 65 8.0 17.7 0.15 2.84 1.04 96 1005.8
20260506084352 7 63 4.8 12.9 0.15 2.82 1.02 96 1005.7
20260506083852 7 86 4.8 14.5 0.15 2.82 1.02 96 1005.7
20260506083336 7 22 6.4 17.7 0.15 2.82 1.02 100 1005.6
20260506082842 7 30 9.7 17.7 0.10 2.77 0.97 96 1005.5
20260506082349 7 100 4.8 12.9 0.10 2.77 0.97 96 1005.8
20260506081849 7 58 6.4 19.3 0.08 2.74 0.94 96 1005.8
20260506081406 7 78 11.3 19.3 0.10 2.74 0.94 96 1005.8
20260506080849 7 67 4.8 14.5 0.08 2.72 0.91 96 1005.6
20260506080342 7 33 4.8 14.5 0.10 2.72 0.91 96 1005.7
20260506073340 7 23 8.0 14.5 0.13 2.67 0.86 96 1005.6
20260506072856 7 27 3.2 12.9 0.13 2.67 0.86 96 1005.6
20260506072338 7 90 3.2 9.7 0.18 2.67 0.86 96 1005.7
20260506071855 7 43 3.2 9.7 0.20 2.67 0.86 96 1005.8
20260506071335 7 12 4.8 12.9 0.23 2.64 0.84 96 1006.0
20260506070834 7 19 6.4 12.9 0.25 2.62 0.81 96 1006.0
20260506070353 7 44 3.2 11.3 0.36 2.62 0.81 96 1006.3
20260506062358 8 303 1.6 9.7 0.41 2.49 0.69 96 1006.8
20260506061841 8 355 3.2 12.9 0.41 2.46 0.66 96 1006.2
20260506060852 8 33 3.2 8.0 0.36 2.36 0.56 96 1006.0
20260506060343 8 11 3.2 8.0 0.28 2.26 0.46 96 1006.4
20260506051414 8 11 3.2 6.4 0.23 2.03 0.23 96 1007.0
20260506050857 8 242 1.6 3.2 0.20 2.01 0.20 96 1007.1
20260506050330 8 242 0.0 3.2 0.18 1.98 0.18 96 1007.1
20260506044843 8 242 0.0 3.2 0.13 1.91 0.10 96 1006.8
20260506044344 8 242 0.0 3.2 0.13 1.88 0.08 96 1006.8
20260506043847 8 242 1.6 3.2 0.10 1.85 0.05 96 1006.8
20260506043343 8 242 0.0 3.2 0.13 1.85 0.05 96 1006.9
20260506042846 8 242 0.0 4.8 0.15 1.85 0.05 96 1007.1
20260506042407 8 242 3.2 6.4 0.13 1.83 0.03 96 1007.3
20260506041847 8 242 3.2 6.4 0.13 1.83 0.03 96 1007.3
20260506041348 8 93 0.0 3.2 0.13 1.80 0.00 96 1006.9
20260506040851 8 93 0.0 3.2 0.13 1.80 0.00 96 1007.0
20260506040346 8 93 1.6 3.2 0.15 1.80 0.00 96 1006.8
20260506035852 8 93 0.0 3.2 0.15 1.80 1.80 96 1006.9
20260506035346 8 93 0.0 6.4 0.15 1.78 1.78 96 1006.8
20260506034840 8 93 4.8 6.4 0.15 1.78 1.78 96 1006.7
20260506034338 8 70 1.6 4.8 0.15 1.75 1.75 96 1006.9
20260506033837 8 69 3.2 4.8 0.18 1.75 1.75 96 1006.8
20260506033356 8 67 0.0 3.2 0.15 1.73 1.73 96 1006.9
20260506032837 8 67 0.0 3.2 0.15 1.70 1.70 96 1006.9
20260506032356 8 67 1.6 3.2 0.15 1.70 1.70 96 1006.9
20260506031850 8 67 1.6 3.2 0.18 1.70 1.70 96 1006.9
20260506031352 8 67 0.0 1.6 0.18 1.68 1.68 96 1007.1
20260506030834 8 67 0.0 1.6 0.20 1.65 1.68 96 1007.1
20260506030348 8 67 0.0 3.2 0.20 1.65 1.65 96 1007.2
20260506025852 8 67 1.6 3.2 0.23 1.65 1.65 96 1007.3
20260506025415 8 63 1.6 3.2 0.23 1.63 1.63 96 1007.3
20260506024835 8 63 0.0 3.2 0.20 1.60 1.60 96 1007.4
20260506024407 8 63 1.6 3.2 0.23 1.60 1.60 96 1007.7
20260506023838 8 63 0.0 4.8 0.20 1.57 1.57 96 1007.6
20260506023410 8 63 0.0 4.8 0.20 1.57 1.57 96 1007.6
20260506022844 8 63 0.0 4.8 0.20 1.55 1.55 95 1008.1
20260506022402 8 63 1.6 4.8 0.20 1.55 1.55 95 1008.1
20260506021846 8 63 1.6 3.2 0.20 1.52 1.52 95 1007.4
20260506021338 8 63 0.0 1.6 0.18 1.47 1.47 95 1007.7
20260506020857 8 63 0.0 3.2 0.18 1.45 1.45 95 1007.6
20260506020407 8 63 1.6 3.2 0.18 1.45 1.45 95 1007.6
20260506015841 8 63 0.0 3.2 0.18 1.42 1.42 95 1007.7
20260506015340 8 63 0.0 4.8 0.18 1.40 1.40 95 1007.8
20260506014918 8 63 1.6 4.8 0.18 1.40 1.40 95 1007.7
20260506014353 8 63 3.2 4.8 0.18 1.37 1.37 95 1007.5
20260506013856 8 29 1.6 4.8 0.18 1.37 1.37 95 1007.9
20260506013403 8 29 1.6 4.8 0.20 1.37 1.37 95 1007.5
20260506012842 8 29 3.2 4.8 0.20 1.35 1.35 95 1007.5
20260506012345 8 263 0.0 4.8 0.20 1.35 1.35 95 1007.9
20260506011906 8 263 0.0 3.2 0.20 1.32 1.32 95 1008.0
20260506011357 8 263 0.0 3.2 0.20 1.30 1.30 95 1008.1
20260506010851 8 263 1.6 3.2 0.20 1.27 1.27 99 1008.0
20260506010350 8 263 0.0 1.6 0.23 1.27 1.27 95 1008.0
20260506005836 8 263 0.0 3.2 0.20 1.24 1.24 95 1007.9
20260506005355 8 263 0.0 1.6 0.18 1.22 1.22 95 1007.8
20260506004909 8 263 0.0 1.6 0.20 1.22 1.22 99 1007.8
20260506004415 8 263 0.0 3.2 0.20 1.19 1.19 95 1007.7
20260506003850 8 263 0.0 3.2 0.23 1.19 1.19 95 1007.6
20260506003353 8 263 0.0 3.2 0.23 1.17 1.17 95 1007.4
20260506002912 9 263 0.0 3.2 0.23 1.14 1.14 95 1007.5
20260506002343 9 263 0.0 1.6 0.23 1.14 1.14 95 1007.6
20260506001845 9 263 0.0 3.2 0.23 1.12 1.12 95 1007.6
20260506001343 9 263 0.0 3.2 0.23 1.09 1.09 95 1007.5
20260506000843 9 263 1.6 3.2 0.20 1.07 1.07 95 1007.2
20260506000335 9 263 0.0 3.2 0.20 1.04 1.04 95 1007.1
20260505235853 9 237 0.0 3.2 0.25 1.04 1.04 95 1007.3
20260505235352 9 237 1.6 3.2 0.30 1.04 1.04 95 1007.2
20260505234850 9 237 1.6 3.2 0.33 1.02 1.02 95 1007.1
20260505234345 10 237 1.6 4.8 0.33 0.99 0.99 95 1007.1
20260505233842 10 251 1.6 4.8 0.33 0.97 0.97 94 1007.5
20260505233335 10 223 0.0 3.2 0.36 0.94 0.94 94 1007.0
20260505232913 10 223 0.0 3.2 0.36 0.91 0.91 94 1007.0
20260505232345 10 223 1.6 3.2 0.38 0.89 0.89 94 1007.0
20260505231907 10 223 0.0 4.8 0.41 0.89 0.89 94 1007.0
20260505231344 10 223 1.6 4.8 0.43 0.86 0.86 94 1007.0
20260505230839 10 269 3.2 6.4 0.43 0.86 0.86 94 1006.9
20260505230344 10 329 3.2 6.4 0.46 0.84 0.84 94 1007.0
20260505225836 10 125 1.6 8.0 0.41 0.79 0.79 94 1007.0
20260505225417 10 125 3.2 8.0 0.38 0.74 0.74 94 1007.1
20260505224904 10 249 1.6 12.9 0.36 0.69 0.69 94 1006.9
20260505224337 10 186 4.8 12.9 0.38 0.66 0.66 94 1007.0
20260505223851 10 223 3.2 6.4 0.36 0.64 0.64 94 1007.1
20260505223348 10 273 3.2 6.4 0.33 0.58 0.58 94 1007.0
20260505222849 10 275 1.6 9.7 0.30 0.53 0.53 94 1006.9
20260505222342 10 132 4.8 9.7 0.33 0.51 0.51 94 1007.0
20260505221914 10 218 3.2 11.3 0.33 0.48 0.48 93 1007.0
20260505221347 10 224 4.8 11.3 0.30 0.43 0.43 93 1007.0
20260505220834 11 250 4.8 8.0 0.33 0.41 0.41 93 1006.9
20260505220354 11 124 4.8 11.3 0.33 0.38 0.38 93 1006.9
20260505215845 11 161 3.2 11.3 0.36 0.38 0.38 93 1007.0
20260505215344 11 239 4.8 8.0 0.30 0.33 0.33 93 1006.7
20260505214844 11 51 3.2 8.0 0.28 0.30 0.30 93 1006.5
20260505214340 11 238 3.2 8.0 0.28 0.28 0.28 92 1006.4
20260505213835 11 317 3.2 9.7 0.25 0.25 0.25 92 1006.3
20260505213340 11 18 3.2 16.1 0.23 0.23 0.23 92 1006.2
20260505212843 11 224 4.8 16.1 0.20 0.20 0.20 91 1006.3
20260505212347 11 281 4.8 11.3 0.18 0.18 0.18 91 1006.2
20260505211834 11 196 4.8 9.7 0.13 0.13 0.13 91 1006.2
20260505211351 11 221 4.8 9.7 0.13 0.13 0.13 90 1006.1
20260505210843 12 235 4.8 14.5 0.08 0.08 0.08 90 1006.0
20260505210340 12 224 4.8 14.5 0.05 0.05 0.05 89 1005.9
20260505205908 12 238 6.4 12.9 0.03 0.03 0.03 88 1005.8
20260505205346 12 194 3.2 14.5 0.03 0.03 0.03 87 1005.8
20260505204843 12 290 8.0 20.9 0.03 0.03 0.03 85 1005.7
20260505204340 13 218 8.0 22.5 0.00 0.00 0.00 83 1005.7
20260505203841 13 254 6.4 22.5 0.00 0.00 0.00 82 1005.9
20260505203337 13 236 3.2 14.5 0.00 0.00 0.00 82 1005.8
20260505202907 13 236 3.2 14.5 0.00 0.00 0.00 81 1005.7
20260505202341 13 236 4.8 20.9 0.00 0.00 0.00 80 1005.9
20260505201841 13 242 6.4 24.1 0.00 0.00 0.00 80 1005.7
20260505201350 13 219 9.7 17.7 0.00 0.00 0.00 81 1005.8
20260505200849 13 236 8.0 20.9 0.00 0.00 0.00 81 1005.7
20260505200345 13 252 6.4 27.4 0.00 0.00 0.00 81 1005.7
20260505195840 14 146 11.3 30.6 0.00 0.00 0.00 80 1005.8
20260505195357 14 227 9.7 30.6 0.00 0.00 0.00 80 1005.7
20260505194844 14 202 3.2 27.4 0.00 0.00 0.00 79 1005.7
20260505194339 15 225 6.4 35.4 0.00 0.00 0.00 78 1005.8
20260505193843 15 340 14.5 35.4 0.00 0.00 0.00 78 1005.7
20260505193413 15 238 8.0 19.3 0.00 0.00 0.00 78 1005.5
20260505192842 15 118 6.4 19.3 0.00 0.00 0.00 78 1005.4
20260505192335 15 295 8.0 24.1 0.00 0.00 0.00 77 1005.2
20260505191839 15 264 11.3 24.1 0.00 0.00 0.00 78 1005.5
20260505191341 15 265 8.0 24.1 0.00 0.00 0.00 77 1005.6
20260505190338 15 232 8.0 29.0 0.00 0.00 0.00 77 1005.7
20260505185839 15 215 9.7 29.0 0.00 0.00 0.00 77 1005.7
20260505185339 15 276 9.7 27.4 0.00 0.00 0.00 78 1005.7
20260505184845 15 200 12.9 27.4 0.00 0.00 0.00 77 1005.8
20260505184341 15 203 9.7 17.7 0.00 0.00 0.00 78 1005.7
20260505183845 15 215 8.0 19.3 0.00 0.00 0.00 79 1005.6
20260505183341 14 304 9.7 19.3 0.00 0.00 0.00 77 1005.5
20260505182835 15 230 6.4 16.1 0.00 0.00 0.00 77 1005.6
20260505182352 15 240 8.0 20.9 0.00 0.00 0.00 76 1005.5
20260505181849 15 210 6.4 22.5 0.00 0.00 0.00 75 1005.4
20260505181345 15 227 11.3 22.5 0.00 0.00 0.00 76 1005.1
20260505180839 15 221 6.4 19.3 0.00 0.00 0.00 76 1005.0
20260505180332 15 304 8.0 29.0 0.00 0.00 0.00 77 1005.0
20260505175844 15 249 9.7 29.0 0.00 0.00 0.00 76 1005.0
20260505175341 15 255 9.7 17.7 0.00 0.00 0.00 76 1005.0
20260505174855 15 225 9.7 19.3 0.00 0.00 0.00 76 1005.0
20260505174339 15 241 9.7 19.3 0.00 0.00 0.00 76 1005.0
20260505173905 15 223 6.4 16.1 0.00 0.00 0.00 76 1004.9
20260505173349 15 234 6.4 29.0 0.00 0.00 0.00 76 1005.0
20260505172851 15 45 9.7 29.0 0.00 0.00 0.00 75 1004.9
20260505172350 15 221 9.7 25.7 0.00 0.00 0.00 74 1005.2
20260505171838 16 12 4.8 17.7 0.00 0.00 0.00 72 1005.1
20260505171342 16 103 8.0 14.5 0.00 0.00 0.00 71 1005.0
20260505170839 17 288 4.8 25.7 0.00 0.00 0.00 69 1004.9
20260505170333 17 252 12.9 25.7 0.00 0.00 0.00 67 1004.7
20260505165848 18 181 8.0 29.0 0.00 0.00 0.00 68 1004.7
20260505165341 17 254 12.9 29.0 0.00 0.00 0.00 69 1004.6
20260505164838 16 217 8.0 22.5 0.00 0.00 0.00 71 1004.6
20260505164335 16 220 9.7 22.5 0.00 0.00 0.00 72 1004.4
20260505163913 15 227 8.0 30.6 0.00 0.00 0.00 73 1004.4
20260505163345 15 259 12.9 30.6 0.00 0.00 0.00 74 1004.3
20260505162904 15 211 9.7 22.5 0.00 0.00 0.00 74 1004.3
20260505162339 15 207 11.3 22.5 0.00 0.00 0.00 73 1004.6
20260505161839 15 236 8.0 25.7 0.00 0.00 0.00 73 1004.5
20260505161341 15 217 8.0 17.7 0.00 0.00 0.00 72 1004.7
20260505160834 16 250 9.7 22.5 0.00 0.00 0.00 70 1004.3
20260505160332 16 229 9.7 22.5 0.00 0.00 0.00 68 1004.3
20260505153341 18 259 8.0 35.4 0.00 0.00 0.00 66 1004.0
20260505152859 18 245 12.9 24.1 0.00 0.00 0.00 64 1003.9
20260505152416 18 204 9.7 32.2 0.00 0.00 0.00 64 1003.9
20260505151835 18 246 12.9 32.2 0.00 0.00 0.00 62 1003.5
20260505151345 18 238 11.3 25.7 0.00 0.00 0.00 66 1003.5